Terminal Aerodrome Forecast
Issued by NWS

Home | Current Version | Previous Version | Graphics & Text | Print | Product List | Glossary On
Versions: 1 2 3 4 5 6 7 8 9 10 11 12 13 14 15 16 17 18 19 20 21 22 23 24 25 26 27 28 29 30 31 32 33 34 35 36 37 38 39 40 41 42 43 44 45 46 47 48 49 50
000
FTUS43 KLOT 021300 AAA
TAFGYY
TAF AMD
KGYY 021358Z 0214/0312 26007KT P6SM FEW250
     FM022000 VRB04KT P6SM SCT120 BKN200
     FM030000 16006KT P6SM BKN080 OVC100
     FM030900 15008KT P6SM BKN050 OVC080
     FM031100 16012KT 1 1/2SM -SN BR BKN010 OVC035=

USA.gov is the U.S. government's official web portal to all federal, state and local government web resources and services.